Location: Gorze? G�rny
(49.8500°N, 19.5000°E)
Time: 05:17:17
(UTC+00:00)

EO 1 Del DPAF - Pass Details

Date: 13 May 2021
Orbit: 505 x 510 km, 98.0° (Epoch: 20 June)

Event Time Altitude Azimuth Distance (km) Brightness Sun altitude
Rises 23:31:37 0° 10° (N) 2,630 8.4 -20.5°
Reaches altitude 10° 23:33:44 10° 6° (N) 1,738 7.0 -20.4°
Maximum altitude 23:37:24 55° 289° (WNW) 621 3.5 -20.3°
Enters shadow 23:37:52 50° 257° (WSW) 655 3.4 -20.3°
